Time,TemperatureF,DewpointF,PressureIn,WindDirection,WindDirectionDegrees,WindSpeedMPH,WindSpeedGustMPH,Humidity,HourlyPrecipIn,Conditions,Clouds,dailyrainin,SoftwareType,DateUTC
2013-07-22 00:05:00,70.9,59.8,29.86,SE,135,2.0,5.0,68,0.00,,,-99.99,WeatherLink 5.5,2013-07-22 04:05:00,
2013-07-22 01:05:00,70.9,59.8,29.86,SE,135,2.0,5.0,68,0.00,,,-99.99,WeatherLink 5.5,2013-07-22 05:05:00,
2013-07-22 02:05:00,-999.0,-99.9,29.86,SE,135,3.0,5.0,-999,0.00,,,-99.99,WeatherLink 5.5,2013-07-22 06:05:00,
2013-07-22 03:05:00,-999.0,-99.9,29.85,North,-999,0.0,0.0,-999,0.00,,,-99.99,WeatherLink 5.5,2013-07-22 07:05:00,
2013-07-22 04:05:00,-999.0,-99.9,29.84,North,-999,0.0,0.0,-999,0.00,,,-99.99,WeatherLink 5.5,2013-07-22 08:05:00,
2013-07-22 05:05:00,-999.0,-99.9,29.83,North,-999,0.0,0.0,-999,0.00,,,-99.99,WeatherLink 5.5,2013-07-22 09:05:00,
2013-07-22 06:05:00,-999.0,-99.9,29.84,North,-999,0.0,0.0,-999,0.00,,,-99.99,WeatherLink 5.5,2013-07-22 10:05:00,
2013-07-22 07:05:00,66.0,63.9,29.86,ESE,112,1.0,3.0,93,0.00,,,-99.99,WeatherLink 5.5,2013-07-22 11:05:00,
2013-07-22 08:05:00,67.8,65.7,29.86,ESE,112,2.0,5.0,93,0.00,,,-99.99,WeatherLink 5.5,2013-07-22 12:05:00,
2013-07-22 09:05:00,67.9,65.5,29.87,East,90,3.0,7.0,92,0.00,,,-99.99,WeatherLink 5.5,2013-07-22 13:05:00,
2013-07-22 10:05:00,70.9,64.4,29.88,East,90,4.0,10.0,80,0.00,,,-99.99,WeatherLink 5.5,2013-07-22 14:05:00,
2013-07-22 11:05:00,72.3,65.4,29.87,East,90,4.0,8.0,79,0.00,,,-99.99,WeatherLink 5.5,2013-07-22 15:05:00,
2013-07-22 12:05:00,74.9,66.4,29.86,East,90,4.0,11.0,75,0.00,,,-99.99,WeatherLink 5.5,2013-07-22 16:05:00,
2013-07-22 13:05:00,76.8,67.9,29.86,SE,135,4.0,13.0,74,0.00,,,-99.99,WeatherLink 5.5,2013-07-22 17:05:00,
2013-07-22 14:00:00,77.6,67.4,29.84,SE,135,4.0,12.0,71,0.00,,,-99.99,WeatherLink 5.5,2013-07-22 18:00:00,
2013-07-22 15:00:00,76.5,68.4,29.82,SE,135,4.0,10.0,76,0.00,,,-99.99,WeatherLink 5.5,2013-07-22 19:00:00,
2013-07-22 16:05:00,77.0,69.2,29.81,SSE,157,4.0,10.0,77,0.00,,,-99.99,WeatherLink 5.5,2013-07-22 20:05:00,
2013-07-22 17:05:00,77.2,69.0,29.78,SE,135,3.0,9.0,76,0.00,,,-99.99,WeatherLink 5.5,2013-07-22 21:05:00,
2013-07-22 18:05:00,77.6,70.2,29.76,ESE,112,2.0,10.0,78,0.00,,,-99.99,WeatherLink 5.5,2013-07-22 22:05:00,
2013-07-22 19:05:00,-999.0,-99.9,29.78,SE,135,4.0,10.0,-999,0.00,,,-99.99,WeatherLink 5.5,2013-07-22 23:05:00,
2013-07-22 20:05:00,74.0,69.5,29.76,SE,135,4.0,11.0,86,0.00,,,-99.99,WeatherLink 5.5,2013-07-23 00:05:00,
2013-07-22 21:05:00,71.8,70.0,29.76,ESE,112,4.0,10.0,94,0.05,,,-99.99,WeatherLink 5.5,2013-07-23 01:05:00,
2013-07-22 22:05:00,71.6,70.1,29.76,SE,135,3.0,7.0,95,0.00,,,-99.99,WeatherLink 5.5,2013-07-23 02:05:00,
2013-07-22 23:05:00,70.8,69.6,29.75,ESE,112,4.0,7.0,96,0.00,,,-99.99,WeatherLink 5.5,2013-07-23 03:05:00,